,,PA_Meas_PMT16A,,PR_Meas_QMR101_102,,RH_Meas_QMH101,,SR_Meas_QMS101,,TA_Meas_QMH101,,GenWind,,GenWind,
time,status,PA,status,PR,status,RH,status,SR,status,TA,status,DirAvg,status,SpdAvg,
2014-03-10, 07:11:04,VALID,918.321,VALID,0,VALID,90.9016,VALID,61.0266,VALID,19.0023,VALID,128,VALID,1.52813,
2014-03-10, 07:12:04,VALID,918.367,VALID,0,VALID,90.9245,VALID,63.3903,VALID,19.0023,VALID,134,VALID,1.1918,
2014-03-10, 07:13:04,VALID,918.414,VALID,0,VALID,90.955,VALID,64.787,VALID,19.0023,VALID,138,VALID,0.946484,
2014-03-10, 07:14:04,VALID,918.419,VALID,0,VALID,90.9397,VALID,66.6135,VALID,19.0622,VALID,154,VALID,0.960938,
2014-03-10, 07:15:04,VALID,918.454,VALID,0,VALID,90.9016,VALID,69.7293,VALID,19.0817,VALID,160,VALID,0.989844,
2014-03-10, 07:16:04,VALID,918.508,VALID,0,VALID,90.8864,VALID,72.9525,VALID,19.0803,VALID,155,VALID,0.931641,
2014-03-10, 07:17:04,VALID,918.534,VALID,0,VALID,90.8635,VALID,75.2088,VALID,19.0998,VALID,177,VALID,1.14336,
2014-03-10, 07:18:04,VALID,918.577,VALID,0,VALID,90.8406,VALID,77.0353,VALID,19.0788,VALID,172,VALID,0.869922,
2014-03-10, 07:19:04,VALID,918.584,VALID,0,VALID,90.7415,VALID,78.9692,VALID,19.0998,VALID,161,VALID,1.42383,
2014-03-10, 07:20:04,VALID,918.615,VALID,0,VALID,90.6348,VALID,81.333,VALID,19.1193,VALID,176,VALID,1.77656,
2014-03-10, 07:21:04,VALID,918.638,VALID,0,VALID,90.6043,VALID,83.5892,VALID,19.1193,VALID,162,VALID,1.8543,
2014-03-10, 07:22:04,VALID,918.632,VALID,0,VALID,90.65,VALID,85.4157,VALID,19.1193,VALID,171,VALID,1.62227,
2014-03-10, 07:23:04,VALID,918.644,VALID,0,VALID,90.6805,VALID,87.1348,VALID,19.1388,VALID,158,VALID,1.40469,
2014-03-10, 07:24:04,VALID,918.617,VALID,0,VALID,90.6348,VALID,88.7464,VALID,19.1388,VALID,162,VALID,1.23242,
2014-03-10, 07:25:04,VALID,918.651,VALID,0,VALID,90.6424,VALID,90.6803,VALID,19.1583,VALID,173,VALID,1.38437,
2014-03-10, 07:26:04,VALID,918.606,VALID,0,VALID,90.5509,VALID,92.6143,VALID,19.2182,VALID,163,VALID,1.39883,
2014-03-10, 07:27:04,VALID,918.607,VALID,0,VALID,90.2231,VALID,94.978,VALID,19.2558,VALID,144,VALID,1.60156,
2014-03-10, 07:28:04,VALID,918.598,VALID,0,VALID,90.1469,VALID,97.2342,VALID,19.2948,VALID,139,VALID,1.16211,
2014-03-10, 07:29:04,VALID,918.56,VALID,0,VALID,89.9639,VALID,98.5235,VALID,19.3338,VALID,153,VALID,0.859766,
2014-03-10, 07:30:04,VALID,918.556,VALID,0,VALID,89.842,VALID,99.4905,VALID,19.3728,VALID,134,VALID,1.32539,
2014-03-10, 07:31:04,VALID,918.504,VALID,0,VALID,89.6742,VALID,101.21,VALID,19.4508,VALID,116,VALID,1.63906,
2014-03-10, 07:32:04,VALID,918.524,VALID,0,VALID,89.5218,VALID,104.54,VALID,19.4883,VALID,111,VALID,0.572266,
2014-03-10, 07:33:04,VALID,918.513,VALID,0,VALID,89.194,VALID,108.73,VALID,19.5678,VALID,124,VALID,1.53594,
2014-03-10, 07:34:04,VALID,918.526,VALID,0,VALID,88.9424,VALID,112.491,VALID,19.6263,VALID,94,VALID,1.54023,
2014-03-10, 07:35:04,VALID,918.573,VALID,0,VALID,88.7975,VALID,116.466,VALID,19.6848,VALID,96,VALID,0.925,
2014-03-10, 07:36:04,VALID,918.61,VALID,0,VALID,88.6984,VALID,120.871,VALID,19.7238,VALID,104,VALID,0.932813,
2014-03-10, 07:37:04,VALID,918.628,VALID,0,VALID,88.2944,VALID,125.491,VALID,19.7628,VALID,141,VALID,1.94922,
2014-03-10, 07:38:04,VALID,918.659,VALID,0,VALID,87.6388,VALID,129.467,VALID,19.8018,VALID,131,VALID,0.396094,
2014-03-10, 07:39:04,VALID,918.724,VALID,0,VALID,87.372,VALID,133.334,VALID,19.8393,VALID,152,VALID,1.43008,
2014-03-10, 07:40:04,VALID,918.758,VALID,0,VALID,87.3872,VALID,136.773,VALID,19.8978,VALID,154,VALID,0.742578,
2014-03-10, 07:41:04,VALID,918.801,VALID,0,VALID,87.1738,VALID,139.996,VALID,19.9383,VALID,150,VALID,1.94727,
2014-03-10, 07:42:04,VALID,918.867,VALID,0,VALID,87.0061,VALID,142.789,VALID,19.9563,VALID,145,VALID,1.27461,
2014-03-10, 07:43:04,VALID,918.884,VALID,0,VALID,87.1433,VALID,144.401,VALID,19.9953,VALID,154,VALID,1.42578,
2014-03-10, 07:44:04,VALID,918.912,VALID,0,VALID,87.1509,VALID,145.798,VALID,20.0148,VALID,175,VALID,0.917969,
2014-03-10, 07:45:04,VALID,918.976,VALID,0,VALID,87.189,VALID,148.484,VALID,20.0749,VALID,160,VALID,1.07852,
2014-03-10, 07:46:04,VALID,918.976,VALID,0,VALID,87.0975,VALID,150.955,VALID,20.0733,VALID,162,VALID,0.824609,
2014-03-10, 07:47:04,VALID,918.987,VALID,0,VALID,86.9069,VALID,152.996,VALID,20.0944,VALID,147,VALID,1.76523,
2014-03-10, 07:48:04,VALID,918.988,VALID,0,VALID,86.7011,VALID,153.533,VALID,20.1123,VALID,156,VALID,1.45352,
2014-03-10, 07:49:04,VALID,919.024,VALID,0,VALID,86.5334,VALID,154.608,VALID,20.1318,VALID,139,VALID,1.52031,
2014-03-10, 07:50:04,VALID,918.992,VALID,0,VALID,86.7316,VALID,156.972,VALID,20.1708,VALID,141,VALID,0.63125,
2014-03-10, 07:51:04,VALID,919.006,VALID,0,VALID,86.4877,VALID,158.583,VALID,20.2098,VALID,145,VALID,1.15352,
2014-03-10, 07:52:04,VALID,918.999,VALID,0,VALID,86.1141,VALID,159.98,VALID,20.2894,VALID,141,VALID,1.34648,
2014-03-10, 07:53:04,VALID,919.001,VALID,0,VALID,86.0226,VALID,163.311,VALID,20.3074,VALID,152,VALID,1.51602,
2014-03-10, 07:54:04,VALID,919.007,VALID,0,VALID,85.7101,VALID,167.286,VALID,20.3659,VALID,151,VALID,1.75117,
2014-03-10, 07:55:04,VALID,919,VALID,0,VALID,85.4356,VALID,168.683,VALID,20.4244,VALID,151,VALID,1.31836,
2014-03-10, 07:56:04,VALID,919.006,VALID,0,VALID,85.3594,VALID,166.856,VALID,20.4829,VALID,129,VALID,1.56133,
2014-03-10, 07:57:04,VALID,918.995,VALID,0,VALID,85.1307,VALID,165.567,VALID,20.543,VALID,132,VALID,1.33008,
2014-03-10, 07:58:04,VALID,919.017,VALID,0,VALID,85.1917,VALID,167.931,VALID,20.621,VALID,134,VALID,0.872656,
2014-03-10, 07:59:04,VALID,919.009,VALID,0,VALID,84.3379,VALID,172.013,VALID,20.639,VALID,142,VALID,1.25039,
2014-03-10, 08:00:04,VALID,919.012,VALID,0,VALID,84.0329,VALID,176.526,VALID,20.7185,VALID,144,VALID,1.52266,
2014-03-10, 08:01:04,VALID,919.039,VALID,0,VALID,84.1778,VALID,181.146,VALID,20.7755,VALID,128,VALID,0.740625,
2014-03-10, 08:02:04,VALID,919.02,VALID,0,VALID,83.9872,VALID,185.873,VALID,20.8535,VALID,131,VALID,1.0375,
2014-03-10, 08:03:04,VALID,919.046,VALID,0,VALID,83.8195,VALID,189.204,VALID,20.912,VALID,172,VALID,1.15273,
2014-03-10, 08:04:04,VALID,919.021,VALID,0,VALID,83.789,VALID,191.138,VALID,20.969,VALID,158,VALID,1.14141,
2014-03-10, 08:05:04,VALID,919.06,VALID,0,VALID,82.9885,VALID,193.179,VALID,21.0291,VALID,138,VALID,1.40781,
2014-03-10, 08:06:04,VALID,919.078,VALID,0,VALID,83.2477,VALID,192.535,VALID,21.0681,VALID,143,VALID,1.62109,
2014-03-10, 08:07:04,VALID,919.063,VALID,0,VALID,82.775,VALID,189.311,VALID,21.0681,VALID,151,VALID,1.86523,
2014-03-10, 08:08:04,VALID,919.097,VALID,0,VALID,82.6759,VALID,184.691,VALID,21.0681,VALID,163,VALID,1.4582,
2014-03-10, 08:09:04,VALID,919.075,VALID,0,VALID,82.7522,VALID,179.749,VALID,21.0876,VALID,167,VALID,1.36289,
2014-03-10, 08:10:04,VALID,919.1,VALID,0,VALID,82.493,VALID,182.005,VALID,21.0876,VALID,141,VALID,1.71875,
2014-03-10, 08:11:04,VALID,919.152,VALID,0,VALID,82.2109,VALID,188.452,VALID,21.047,VALID,161,VALID,1.82852,
2014-03-10, 08:12:04,VALID,919.164,VALID,0,VALID,82.9428,VALID,196.295,VALID,21.0486,VALID,137,VALID,1.50742,
2014-03-10, 08:13:04,VALID,919.158,VALID,0,VALID,82.9351,VALID,201.774,VALID,21.0486,VALID,160,VALID,1.39531,
2014-03-10, 08:14:04,VALID,919.19,VALID,0,VALID,82.7141,VALID,206.717,VALID,21.0876,VALID,153,VALID,1.93789,
2014-03-10, 08:15:04,VALID,919.192,VALID,0,VALID,82.432,VALID,211.552,VALID,21.1266,VALID,155,VALID,1.52461,
2014-03-10, 08:16:04,VALID,919.194,VALID,0,VALID,82.8665,VALID,216.064,VALID,21.1461,VALID,148,VALID,1.18516,
2014-03-10, 08:17:04,VALID,919.217,VALID,0,VALID,82.1804,VALID,226.379,VALID,21.125,VALID,164,VALID,1.84648,
2014-03-10, 08:18:04,VALID,919.22,VALID,0,VALID,81.601,VALID,238.842,VALID,21.2047,VALID,141,VALID,2.07578,
2014-03-10, 08:19:04,VALID,919.205,VALID,0,VALID,81.4105,VALID,243.891,VALID,21.2421,VALID,153,VALID,1.47305,
2014-03-10, 08:20:04,VALID,919.223,VALID,0,VALID,81.6544,VALID,245.61,VALID,21.3022,VALID,165,VALID,1.82187,
2014-03-10, 08:21:04,VALID,919.242,VALID,0,VALID,81.7764,VALID,249.586,VALID,21.3396,VALID,152,VALID,0.927344,
2014-03-10, 08:22:04,VALID,919.26,VALID,0,VALID,81.4562,VALID,251.197,VALID,21.3981,VALID,157,VALID,1.23164,
2014-03-10, 08:23:04,VALID,919.282,VALID,0,VALID,80.8844,VALID,254.313,VALID,21.4957,VALID,158,VALID,1.35703,
2014-03-10, 08:24:04,VALID,919.315,VALID,0,VALID,79.5427,VALID,255.602,VALID,21.5363,VALID,147,VALID,1.54414,
2014-03-10, 08:25:04,VALID,919.283,VALID,0,VALID,80.1221,VALID,252.702,VALID,21.5737,VALID,162,VALID,1.83555,
2014-03-10, 08:26:04,VALID,919.313,VALID,0,VALID,79.9315,VALID,253.561,VALID,21.5559,VALID,146,VALID,1.30078,
2014-03-10, 08:27:04,VALID,919.278,VALID,0,VALID,79.5351,VALID,254.098,VALID,21.5363,VALID,163,VALID,2.45391,
2014-03-10, 08:28:04,VALID,919.31,VALID,0,VALID,80.7701,VALID,256.462,VALID,21.5559,VALID,134,VALID,1.03906,
2014-03-10, 08:29:04,VALID,919.301,VALID,0,VALID,80.4042,VALID,258.503,VALID,21.5559,VALID,127,VALID,1.29609,
2014-03-10, 08:30:04,VALID,919.261,VALID,0,VALID,79.497,VALID,257.966,VALID,21.5949,VALID,146,VALID,1.80117,
2014-03-10, 08:31:04,VALID,919.242,VALID,0,VALID,79.8782,VALID,257.859,VALID,21.616,VALID,146,VALID,1.41133,
2014-03-10, 08:32:04,VALID,919.269,VALID,0,VALID,80.145,VALID,260.33,VALID,21.6729,VALID,146,VALID,1.79453,
2014-03-10, 08:33:04,VALID,919.268,VALID,0,VALID,79.9849,VALID,266.132,VALID,21.712,VALID,137,VALID,1.30508,
2014-03-10, 08:34:04,VALID,919.301,VALID,0,VALID,80.023,VALID,271.611,VALID,21.8079,VALID,140,VALID,1.37812,
2014-03-10, 08:35:04,VALID,919.291,VALID,0,VALID,79.1234,VALID,271.504,VALID,21.8681,VALID,156,VALID,1.47109,
2014-03-10, 08:36:04,VALID,919.29,VALID,0,VALID,79.901,VALID,274.942,VALID,21.9444,VALID,123,VALID,1.10508,
2014-03-10, 08:37:04,VALID,919.309,VALID,0,VALID,80.0459,VALID,277.413,VALID,22.0242,VALID,131,VALID,1.86953,
2014-03-10, 08:38:04,VALID,919.323,VALID,0,VALID,79.5199,VALID,278.81,VALID,22.0632,VALID,131,VALID,1.45547,
2014-03-10, 08:39:04,VALID,919.332,VALID,0,VALID,78.7651,VALID,280.529,VALID,22.1022,VALID,139,VALID,1.92266,
2014-03-10, 08:40:04,VALID,919.289,VALID,0,VALID,77.9037,VALID,282.14,VALID,22.0632,VALID,112,VALID,1.60781,
2014-03-10, 08:41:04,VALID,919.288,VALID,0,VALID,78.605,VALID,283.107,VALID,22.0013,VALID,159,VALID,1.74648,
2014-03-10, 08:42:04,VALID,919.286,VALID,0,VALID,79.7486,VALID,279.884,VALID,22.0225,VALID,129,VALID,0.664063,
2014-03-10, 08:43:04,VALID,919.321,VALID,0,VALID,78.9633,VALID,268.495,VALID,22.0598,VALID,124,VALID,1.98633,
2014-03-10, 08:44:04,VALID,919.301,VALID,0,VALID,78.6889,VALID,250.66,VALID,22.0989,VALID,147,VALID,0.954687,
2014-03-10, 08:45:04,VALID,919.336,VALID,0,VALID,78.3077,VALID,231.106,VALID,22.1574,VALID,144,VALID,1.52773,
2014-03-10, 08:46:04,VALID,919.284,VALID,0,VALID,77.4539,VALID,220.147,VALID,22.1591,VALID,167,VALID,1.55938,
2014-03-10, 08:47:04,VALID,919.293,VALID,0,VALID,77.9494,VALID,214.13,VALID,22.0794,VALID,146,VALID,0.951172,
2014-03-10, 08:48:04,VALID,919.319,VALID,0,VALID,79.0243,VALID,213.056,VALID,22.1201,VALID,167,VALID,1.6168,
2014-03-10, 08:49:04,VALID,919.307,VALID,0,VALID,78.2772,VALID,217.246,VALID,22.0794,VALID,176,VALID,1.79258,
2014-03-10, 08:50:04,VALID,919.347,VALID,0,VALID,79.1616,VALID,225.412,VALID,22.0989,VALID,162,VALID,1.13984,
2014-03-10, 08:51:04,VALID,919.334,VALID,0,VALID,78.6737,VALID,233.362,VALID,22.0403,VALID,145,VALID,2.09531,
2014-03-10, 08:52:04,VALID,919.336,VALID,0,VALID,79.6571,VALID,241.528,VALID,22.0794,VALID,144,VALID,0.896094,
2014-03-10, 08:53:04,VALID,919.353,VALID,0,VALID,78.1019,VALID,255.71,VALID,22.0615,VALID,164,VALID,1.43672,
2014-03-10, 08:54:04,VALID,919.342,VALID,0,VALID,78.4831,VALID,275.587,VALID,22.0582,VALID,157,VALID,1.68789,
2014-03-10, 08:55:04,VALID,919.329,VALID,0,VALID,78.971,VALID,298.364,VALID,22.1184,VALID,152,VALID,1.16992,
2014-03-10, 08:56:04,VALID,919.352,VALID,0,VALID,78.1781,VALID,320.282,VALID,22.1591,VALID,147,VALID,1.66094,
2014-03-10, 08:57:04,VALID,919.322,VALID,0,VALID,78.4297,VALID,336.076,VALID,22.1396,VALID,156,VALID,1.35312,
2014-03-10, 08:58:04,VALID,919.342,VALID,0,VALID,78.5364,VALID,350.903,VALID,22.1981,VALID,158,VALID,1.57773,
2014-03-10, 08:59:04,VALID,919.342,VALID,0,VALID,78.5288,VALID,374.432,VALID,22.3347,VALID,176,VALID,1.30195,
2014-03-10, 09:00:04,VALID,919.339,VALID,0,VALID,77.1947,VALID,378.837,VALID,22.4501,VALID,126,VALID,1.17617,
2014-03-10, 09:01:04,VALID,919.347,VALID,0,VALID,77.492,VALID,385.499,VALID,22.5884,VALID,152,VALID,0.876172,
2014-03-10, 09:02:04,VALID,919.331,VALID,0,VALID,77.8122,VALID,396.458,VALID,22.7233,VALID,129,VALID,0.59375,
2014-03-10, 09:03:04,VALID,919.375,VALID,0,VALID,76.9889,VALID,404.623,VALID,22.9397,VALID,129,VALID,0.85,
2014-03-10, 09:04:04,VALID,919.341,VALID,0,VALID,75.4947,VALID,409.136,VALID,23.0373,VALID,156,VALID,1.62344,
2014-03-10, 09:05:04,VALID,919.367,VALID,0,VALID,75.4642,VALID,400.218,VALID,23.016,VALID,175,VALID,1.35117,
2014-03-10, 09:06:04,VALID,919.422,VALID,0,VALID,75.0678,VALID,366.912,VALID,23.0356,VALID,135,VALID,1.60742,
2014-03-10, 09:07:04,VALID,919.404,VALID,0,VALID,74.1072,VALID,340.159,VALID,22.9185,VALID,173,VALID,1.98438,
2014-03-10, 09:08:04,VALID,919.408,VALID,0,VALID,74.2749,VALID,316.522,VALID,22.8404,VALID,170,VALID,1.98203,
2014-03-10, 09:09:04,VALID,919.429,VALID,0,VALID,74.557,VALID,311.257,VALID,22.8616,VALID,174,VALID,1.88242,
2014-03-10, 09:10:04,VALID,919.437,VALID,0,VALID,74.4274,VALID,299.438,VALID,22.9007,VALID,164,VALID,2.23086,
2014-03-10, 09:11:04,VALID,919.45,VALID,0,VALID,74.1377,VALID,282.678,VALID,22.7836,VALID,172,VALID,2.62109,
2014-03-10, 09:12:04,VALID,919.454,VALID,0,VALID,75.2889,VALID,297.075,VALID,22.7428,VALID,158,VALID,1.51406,
2014-03-10, 09:13:04,VALID,919.472,VALID,0,VALID,75.144,VALID,308.786,VALID,22.7055,VALID,147,VALID,2.79297,
2014-03-10, 09:14:04,VALID,919.466,VALID,0,VALID,75.9521,VALID,306.315,VALID,22.6452,VALID,168,VALID,1.14023,
2014-03-10, 09:15:04,VALID,919.464,VALID,0,VALID,75.2965,VALID,303.091,VALID,22.6843,VALID,157,VALID,2.03359,
2014-03-10, 09:16:04,VALID,919.478,VALID,0,VALID,75.1211,VALID,307.174,VALID,22.7038,VALID,175,VALID,1.47891,
2014-03-10, 09:17:04,VALID,919.507,VALID,0,VALID,75.1288,VALID,322.109,VALID,22.6843,VALID,173,VALID,1.65742,
2014-03-10, 09:18:04,VALID,919.462,VALID,0,VALID,75.6548,VALID,341.126,VALID,22.7836,VALID,158,VALID,0.773438,
2014-03-10, 09:19:04,VALID,919.481,VALID,0,VALID,75.9826,VALID,333.82,VALID,22.9185,VALID,151,VALID,0.800391,
2014-03-10, 09:20:04,VALID,919.479,VALID,0,VALID,74.5341,VALID,293.529,VALID,22.9557,VALID,167,VALID,1.58828,
2014-03-10, 09:21:04,VALID,919.477,VALID,0,VALID,73.8633,VALID,299.438,VALID,22.938,VALID,146,VALID,1.12266,
2014-03-10, 09:22:04,VALID,919.539,VALID,0,VALID,73.7794,VALID,286.223,VALID,22.9185,VALID,103,VALID,2.48945,
2014-03-10, 09:23:04,VALID,919.541,VALID,0,VALID,75.7081,VALID,276.876,VALID,22.8209,VALID,121,VALID,1.16328,
2014-03-10, 09:24:04,VALID,919.529,VALID,0,VALID,75.3803,VALID,269.57,VALID,22.8191,VALID,186,VALID,1.31953,
2014-03-10, 09:25:04,VALID,919.577,VALID,0,VALID,74.3054,VALID,272.041,VALID,22.8191,VALID,160,VALID,1.16289,
2014-03-10, 09:26:04,VALID,919.554,VALID,0,VALID,75.6014,VALID,270.429,VALID,22.8794,VALID,135,VALID,1.11914,
2014-03-10, 09:27:04,VALID,919.599,VALID,0,VALID,74.0767,VALID,265.38,VALID,22.9185,VALID,178,VALID,1.14844,
2014-03-10, 09:28:04,VALID,919.609,VALID,0,VALID,73.383,VALID,254.85,VALID,22.9185,VALID,113,VALID,1.13828,
2014-03-10, 09:29:04,VALID,919.574,VALID,0,VALID,73.3296,VALID,255.817,VALID,22.8794,VALID,122,VALID,1.36172,
2014-03-10, 09:30:04,VALID,919.592,VALID,0,VALID,73.6193,VALID,259.47,VALID,22.8599,VALID,123,VALID,0.485156,
2014-03-10, 09:31:04,VALID,919.609,VALID,0,VALID,74.4274,VALID,259.793,VALID,22.8777,VALID,95,VALID,0.973437,
2014-03-10, 09:32:04,VALID,919.581,VALID,0,VALID,73.6879,VALID,254.098,VALID,22.8582,VALID,126,VALID,0.619922,
2014-03-10, 09:33:04,VALID,919.574,VALID,0,VALID,74.3817,VALID,245.61,VALID,22.8794,VALID,151,VALID,0.964844,
2014-03-10, 09:34:04,VALID,919.614,VALID,0,VALID,74.5113,VALID,237.015,VALID,22.9362,VALID,163,VALID,1.06484,
2014-03-10, 09:35:04,VALID,919.595,VALID,0,VALID,73.1391,VALID,236.478,VALID,23.016,VALID,171,VALID,1.3918,
2014-03-10, 09:36:04,VALID,919.596,VALID,0,VALID,74.6027,VALID,234.651,VALID,23.0551,VALID,86,VALID,1.33438,
2014-03-10, 09:37:04,VALID,919.612,VALID,0,VALID,73.7108,VALID,235.404,VALID,22.9965,VALID,157,VALID,0.549219,
2014-03-10, 09:38:04,VALID,919.573,VALID,0,VALID,73.2534,VALID,234.329,VALID,22.9965,VALID,180,VALID,1.16211,
2014-03-10, 09:39:04,VALID,919.576,VALID,0,VALID,74.3283,VALID,234.114,VALID,22.938,VALID,170,VALID,2.18047,
2014-03-10, 09:40:04,VALID,919.531,VALID,0,VALID,74.6027,VALID,241.42,VALID,22.8014,VALID,168,VALID,1.97539,
2014-03-10, 09:41:04,VALID,919.532,VALID,0,VALID,75.2202,VALID,251.52,VALID,22.7623,VALID,169,VALID,1.39766,
2014-03-10, 09:42:04,VALID,919.522,VALID,0,VALID,75.7768,VALID,256.999,VALID,22.7428,VALID,148,VALID,1.64609,
2014-03-10, 09:43:04,VALID,919.52,VALID,0,VALID,75.8606,VALID,258.718,VALID,22.7038,VALID,135,VALID,2.37578,
2014-03-10, 09:44:04,VALID,919.49,VALID,0,VALID,76.2418,VALID,259.255,VALID,22.6647,VALID,134,VALID,1.9668,
2014-03-10, 09:45:04,VALID,919.454,VALID,0,VALID,74.9687,VALID,259.9,VALID,22.663,VALID,149,VALID,1.07891,
2014-03-10, 09:46:04,VALID,919.443,VALID,0,VALID,75.7539,VALID,260.975,VALID,22.7233,VALID,151,VALID,1.90508,
2014-03-10, 09:47:04,VALID,919.453,VALID,0,VALID,76.4019,VALID,262.586,VALID,22.7428,VALID,161,VALID,1.92461,
2014-03-10, 09:48:04,VALID,919.434,VALID,0,VALID,76.844,VALID,265.057,VALID,22.7818,VALID,125,VALID,1.225,
2014-03-10, 09:49:04,VALID,919.411,VALID,0,VALID,75.9978,VALID,275.801,VALID,22.8209,VALID,133,VALID,1.85781,
2014-03-10, 09:50:04,VALID,919.422,VALID,0,VALID,76.1808,VALID,288.05,VALID,22.7818,VALID,138,VALID,1.75312,
2014-03-10, 09:51:04,VALID,919.399,VALID,0,VALID,77.5301,VALID,299.868,VALID,22.8209,VALID,154,VALID,1.14258,
2014-03-10, 09:52:04,VALID,919.357,VALID,0,VALID,75.6014,VALID,302.017,VALID,22.8599,VALID,148,VALID,1.01094,
2014-03-10, 09:53:04,VALID,919.382,VALID,0,VALID,76.4857,VALID,297.827,VALID,22.9185,VALID,115,VALID,1.06992,
2014-03-10, 09:54:04,VALID,919.363,VALID,0,VALID,76.6382,VALID,294.281,VALID,22.9167,VALID,139,VALID,1.93398,
2014-03-10, 09:55:04,VALID,919.36,VALID,0,VALID,75.8606,VALID,302.232,VALID,22.8989,VALID,116,VALID,1.38867,
2014-03-10, 09:56:04,VALID,919.366,VALID,0,VALID,76.0436,VALID,319.208,VALID,22.9202,VALID,143,VALID,0.729688,
2014-03-10, 09:57:04,VALID,919.34,VALID,0,VALID,75.1059,VALID,331.778,VALID,22.9983,VALID,160,VALID,1.6293,
2014-03-10, 09:58:04,VALID,919.364,VALID,0,VALID,76.0207,VALID,345.101,VALID,23.1154,VALID,86,VALID,1.78516,
2014-03-10, 09:59:04,VALID,919.279,VALID,0,VALID,74.2749,VALID,344.241,VALID,23.1544,VALID,89,VALID,1.73633,
2014-03-10, 10:00:04,VALID,919.312,VALID,0,VALID,74.6409,VALID,346.283,VALID,23.1544,VALID,107,VALID,1.64219,
2014-03-10, 10:01:04,VALID,919.339,VALID,0,VALID,73.848,VALID,341.018,VALID,23.1544,VALID,140,VALID,2.78828,
2014-03-10, 10:02:04,VALID,919.338,VALID,0,VALID,74.1835,VALID,334.464,VALID,23.1544,VALID,119,VALID,1.19375,
2014-03-10, 10:03:04,VALID,919.349,VALID,0,VALID,73.8328,VALID,330.596,VALID,23.1154,VALID,122,VALID,2.29141,
2014-03-10, 10:04:04,VALID,919.342,VALID,0,VALID,74.3512,VALID,331.241,VALID,23.1349,VALID,142,VALID,1.51406,
2014-03-10, 10:05:04,VALID,919.336,VALID,0,VALID,73.5202,VALID,351.547,VALID,23.252,VALID,125,VALID,1.26016,
2014-03-10, 10:06:04,VALID,919.367,VALID,0,VALID,74.4884,VALID,365.73,VALID,23.2698,VALID,113,VALID,1.5332,
2014-03-10, 10:07:04,VALID,919.356,VALID,0,VALID,72.9027,VALID,398.392,VALID,23.3106,VALID,87,VALID,1.02422,
2014-03-10, 10:08:04,VALID,919.324,VALID,0,VALID,72.3157,VALID,418.913,VALID,23.3496,VALID,133,VALID,2.4668,
2014-03-10, 10:09:04,VALID,919.322,VALID,0,VALID,73.261,VALID,437.93,VALID,23.4277,VALID,117,VALID,1.71875,
2014-03-10, 10:10:04,VALID,919.371,VALID,0,VALID,71.8278,VALID,434.385,VALID,23.5235,VALID,142,VALID,2.03203,
2014-03-10, 10:11:04,VALID,919.368,VALID,0,VALID,74.0081,VALID,449.534,VALID,23.6211,VALID,91,VALID,1.20117,
2014-03-10, 10:12:04,VALID,919.373,VALID,0,VALID,70.6843,VALID,453.509,VALID,23.5626,VALID,93,VALID,2.88945,
2014-03-10, 10:13:04,VALID,919.374,VALID,0,VALID,72.0184,VALID,454.906,VALID,23.4845,VALID,139,VALID,2.63516,
2014-03-10, 10:14:04,VALID,919.371,VALID,0,VALID,72.8036,VALID,467.691,VALID,23.504,VALID,53,VALID,1.21602,
2014-03-10, 10:15:04,VALID,919.394,VALID,0,VALID,72.5292,VALID,472.096,VALID,23.6992,VALID,169,VALID,1.14844,
2014-03-10, 10:16:04,VALID,919.36,VALID,0,VALID,71.157,VALID,478.65,VALID,23.9353,VALID,118,VALID,0.860937,
2014-03-10, 10:17:04,VALID,919.309,VALID,0,VALID,68.4964,VALID,494.874,VALID,23.9335,VALID,114,VALID,2.15352,
2014-03-10, 10:18:04,VALID,919.381,VALID,0,VALID,70.1431,VALID,486.708,VALID,23.992,VALID,115,VALID,2.52305,
2014-03-10, 10:19:04,VALID,919.365,VALID,0,VALID,70.2803,VALID,493.477,VALID,23.9353,VALID,141,VALID,2.28164,
2014-03-10, 10:20:04,VALID,919.331,VALID,0,VALID,68.7708,VALID,500.676,VALID,23.8767,VALID,144,VALID,2.04766,
2014-03-10, 10:21:04,VALID,919.356,VALID,0,VALID,70.7377,VALID,500.891,VALID,23.8749,VALID,124,VALID,1.3125,
2014-03-10, 10:22:04,VALID,919.326,VALID,0,VALID,68.2982,VALID,510.99,VALID,23.8962,VALID,152,VALID,2.73203,
2014-03-10, 10:23:04,VALID,919.342,VALID,0,VALID,70.0135,VALID,521.09,VALID,23.9353,VALID,153,VALID,1.12695,
2014-03-10, 10:24:04,VALID,919.305,VALID,0,VALID,69.3045,VALID,514.536,VALID,24.0134,VALID,163,VALID,1.92578,
2014-03-10, 10:25:04,VALID,919.322,VALID,0,VALID,69.9448,VALID,507.23,VALID,24.0701,VALID,157,VALID,1.76172,
2014-03-10, 10:26:04,VALID,919.309,VALID,0,VALID,69.9372,VALID,519.263,VALID,24.1287,VALID,157,VALID,1.35312,
2014-03-10, 10:27:04,VALID,919.328,VALID,0,VALID,69.8,VALID,540.322,VALID,24.3044,VALID,125,VALID,1.37109,
2014-03-10, 10:28:04,VALID,919.329,VALID,0,VALID,69.6933,VALID,533.338,VALID,24.402,VALID,121,VALID,1.44414,
2014-03-10, 10:29:04,VALID,919.328,VALID,0,VALID,68.4583,VALID,546.338,VALID,24.5387,VALID,45,VALID,1.29961,
2014-03-10, 10:30:04,VALID,919.323,VALID,0,VALID,68.4125,VALID,533.66,VALID,24.5582,VALID,63,VALID,2.48789,
2014-03-10, 10:31:04,VALID,919.3,VALID,0,VALID,68.2219,VALID,543.867,VALID,24.5582,VALID,142,VALID,1.25898,
2014-03-10, 10:32:04,VALID,919.276,VALID,0,VALID,67.9018,VALID,527.643,VALID,24.6363,VALID,123,VALID,1.62578,
2014-03-10, 10:33:04,VALID,919.268,VALID,0,VALID,67.5892,VALID,535.272,VALID,24.5759,VALID,131,VALID,2.28047,
2014-03-10, 10:34:04,VALID,919.305,VALID,0,VALID,68.626,VALID,519.693,VALID,24.6754,VALID,126,VALID,0.635547,
2014-03-10, 10:35:04,VALID,919.273,VALID,0,VALID,65.5309,VALID,525.602,VALID,24.734,VALID,161,VALID,1.51133,
2014-03-10, 10:36:04,VALID,919.275,VALID,0,VALID,65.1345,VALID,545.049,VALID,24.8316,VALID,203,VALID,1.3707,
2014-03-10, 10:37:04,VALID,919.322,VALID,0,VALID,64.8981,VALID,558.264,VALID,24.8102,VALID,157,VALID,1.56758,
2014-03-10, 10:38:04,VALID,919.281,VALID,0,VALID,69.3502,VALID,570.405,VALID,24.773,VALID,117,VALID,1.61211,
2014-03-10, 10:39:04,VALID,919.282,VALID,0,VALID,66.5143,VALID,588.563,VALID,24.9292,VALID,77,VALID,1.00898,
2014-03-10, 10:40:04,VALID,919.293,VALID,0,VALID,65.2336,VALID,598.017,VALID,25.105,VALID,134,VALID,1.05156,
2014-03-10, 10:41:04,VALID,919.245,VALID,0,VALID,64.921,VALID,609.084,VALID,25.2007,VALID,164,VALID,1.03125,
2014-03-10, 10:42:04,VALID,919.256,VALID,0,VALID,65.0582,VALID,621.01,VALID,25.1422,VALID,131,VALID,1.97344,
2014-03-10, 10:43:04,VALID,919.274,VALID,0,VALID,64.395,VALID,621.654,VALID,25.1812,VALID,189,VALID,1.57734,
2014-03-10, 10:44:04,VALID,919.254,VALID,0,VALID,64.8676,VALID,609.191,VALID,25.1031,VALID,172,VALID,2.275,
2014-03-10, 10:45:04,VALID,919.253,VALID,0,VALID,63.7241,VALID,609.406,VALID,25.0445,VALID,169,VALID,1.15039,